Voltar ao catálogo

STARLINK-37671

AtivoComunicaçõesVLEO
NORAD 69206·PAYLOAD·🇺🇸 United States

Lançado May 25, 2026 de Cape Canaveral Space Force Station

Loading…

Próximas Passagens (próximas 24 horas)

TLE

AtualizadoSource: CelesTrak SupGP

Época: Sep 15, 2026, 02:47 UTC

1 69206C 26114AA  26258.11645833  .00048501  00000+0  14328-2 0  2586
2 69206  53.1570 138.6608 0001328  80.7499 244.7887 15.34369281    12

Acompanhe STARLINK-37671 em tempo real com AllMySat

Download on the App Store